Meteo pe oră la Almarza

Astăzi, 19 Ianuarie, Marţi

Timp Temperatura Precipitaţii Vânt Presiune Umiditate
00:00 +1°C° 0 mm 2 m/s 690 mmHg 72%
01:00 +1°C° 0 mm 2 m/s 690 mmHg 73%
02:00 +2°C° 0 mm 1 m/s 689 mmHg 75%
03:00 +2°C° 0 mm 1 m/s 689 mmHg 76%
04:00 +1°C° 0 mm 2 m/s 688 mmHg 77%
05:00 +1°C° 0 mm 2 m/s 688 mmHg 78%
06:00 +1°C° 0 mm 2 m/s 688 mmHg 79%
07:00 +1°C° 0 mm 2 m/s 688 mmHg 79%
08:00 +2°C° 0 mm 2 m/s 688 mmHg 79%
09:00 +2°C° 0 mm 2 m/s 688 mmHg 78%
10:00 +4°C° 0 mm 2 m/s 688 mmHg 80%
11:00 +5°C° 0 mm 2 m/s 688 mmHg 81%
12:00 +6°C° 0 mm 2 m/s 688 mmHg 83%
13:00 +6°C° 0 mm 2 m/s 687 mmHg 83%
14:00 +6°C° 0 mm 2 m/s 686 mmHg 83%
15:00 +6°C° 0 mm 2 m/s 685 mmHg 83%
16:00 +4°C° 0 mm 2 m/s 685 mmHg 83%
17:00 +3°C° 0 mm 2 m/s 685 mmHg 82%
18:00 +1°C° 0 mm 2 m/s 684 mmHg 82%
19:00 +1°C° 0 mm 2 m/s 684 mmHg 82%
20:00 +1°C° 0 mm 2 m/s 684 mmHg 81%
21:00 0°C° 0 mm 3 m/s 683 mmHg 81%
22:00 0°C° 0 mm 3 m/s 683 mmHg 82%
23:00 0°C° 0 mm 3 m/s 683 mmHg 84%

Mâine, 20 Ianuarie, Miercuri

Timp Temperatura Precipitaţii Vânt Presiune Umiditate
00:00 0°C° 0 mm 3 m/s 682 mmHg 85%
01:00 0°C° 0 mm 3 m/s 682 mmHg 87%
02:00 0°C° 0 mm 3 m/s 681 mmHg 88%
03:00 0°C° 0 mm 3 m/s 680 mmHg 89%
04:00 0°C° 0 mm 3 m/s 680 mmHg 89%
05:00 0°C° 0 mm 3 m/s 680 mmHg 89%
06:00 0°C° 0 mm 3 m/s 679 mmHg 89%
07:00 0°C° 0 mm 4 m/s 679 mmHg 89%
08:00 0°C° 0 mm 4 m/s 679 mmHg 88%
09:00 +1°C° 0 mm 5 m/s 678 mmHg 87%
10:00 +2°C° 0 mm 5 m/s 678 mmHg 87%
11:00 +3°C° 0 mm 5 m/s 678 mmHg 86%
12:00 +5°C° 0 mm 5 m/s 677 mmHg 85%
13:00 +5°C° 0 mm 5 m/s 677 mmHg 85%
14:00 +5°C° 0 mm 5 m/s 676 mmHg 86%
15:00 +5°C° 0 mm 4 m/s 675 mmHg 86%
16:00 +5°C° 0 mm 4 m/s 675 mmHg 87%
17:00 +4°C° 0 mm 4 m/s 675 mmHg 89%
18:00 +4°C° 0 mm 4 m/s 675 mmHg 90%
19:00 +4°C° 0.1 mm 4 m/s 676 mmHg 91%
20:00 +4°C° 0.1 mm 4 m/s 676 mmHg 91%
21:00 +4°C° 0.1 mm 4 m/s 676 mmHg 92%
22:00 +4°C° 0.2 mm 4 m/s 676 mmHg 92%
23:00 +4°C° 0.2 mm 4 m/s 677 mmHg 92%

Poimâine, 21 Ianuarie, Joi

Timp Temperatura Precipitaţii Vânt Presiune Umiditate
00:00 +3°C° 0.2 mm 3 m/s 677 mmHg 93%
01:00 +3°C° 0.2 mm 3 m/s 677 mmHg 93%
02:00 +3°C° 0.2 mm 3 m/s 677 mmHg 93%
03:00 +3°C° 0.2 mm 3 m/s 677 mmHg 93%
04:00 +3°C° 0.1 mm 3 m/s 677 mmHg 93%
05:00 +4°C° 0.1 mm 3 m/s 678 mmHg 93%
06:00 +4°C° 0.1 mm 3 m/s 678 mmHg 92%
07:00 +4°C° 0 mm 4 m/s 678 mmHg 92%
08:00 +4°C° 0 mm 4 m/s 678 mmHg 91%
09:00 +3°C° 0 mm 5 m/s 678 mmHg 91%
10:00 +5°C° 0.1 mm 5 m/s 678 mmHg 89%
11:00 +4°C° 0.1 mm 6 m/s 677 mmHg 87%
12:00 +5°C° 0.1 mm 7 m/s 677 mmHg 85%
13:00 +5°C° 0.5 mm 6 m/s 676 mmHg 86%
14:00 +5°C° 0.5 mm 6 m/s 676 mmHg 87%
15:00 +5°C° 0.5 mm 6 m/s 675 mmHg 88%
16:00 +5°C° 1.5 mm 7 m/s 675 mmHg 88%
17:00 +5°C° 1.5 mm 7 m/s 675 mmHg 89%
18:00 +5°C° 1.5 mm 8 m/s 674 mmHg 90%
19:00 +4°C° 0 mm 8 m/s 675 mmHg 87%
20:00 +3°C° 0 mm 9 m/s 675 mmHg 83%
21:00 +2°C° 0 mm 9 m/s 675 mmHg 80%
22:00 +2°C° 0 mm 9 m/s 676 mmHg 81%
23:00 +2°C° 0 mm 9 m/s 676 mmHg 82%

22 Ianuarie, Vineri

Timp Temperatura Precipitaţii Vânt Presiune Umiditate
00:00 +2°C° 0 mm 8 m/s 677 mmHg 84%
01:00 +2°C° 0 mm 8 m/s 677 mmHg 83%
02:00 +2°C° 0 mm 7 m/s 677 mmHg 83%
03:00 +1°C° 0 mm 6 m/s 678 mmHg 82%
04:00 +1°C° 0 mm 5 m/s 677 mmHg 85%
05:00 +1°C° 0 mm 5 m/s 677 mmHg 87%
06:00 +1°C° 0 mm 4 m/s 677 mmHg 89%
07:00 +1°C° 1.1 mm 4 m/s 676 mmHg 90%
08:00 +2°C° 1.1 mm 3 m/s 676 mmHg 91%
09:00 +2°C° 1.1 mm 3 m/s 676 mmHg 93%
10:00 +3°C° 0.5 mm 4 m/s 676 mmHg 89%
11:00 +2°C° 0.5 mm 6 m/s 676 mmHg 85%
12:00 +3°C° 0.5 mm 7 m/s 677 mmHg 81%
13:00 +3°C° 0.2 mm 6 m/s 677 mmHg 85%
14:00 +2°C° 0.2 mm 5 m/s 677 mmHg 89%
15:00 +3°C° 0.2 mm 4 m/s 678 mmHg 93%
16:00 +1°C° 0.1 mm 4 m/s 678 mmHg 91%
17:00 +1°C° 0.1 mm 3 m/s 679 mmHg 90%
18:00 +1°C° 0.1 mm 2 m/s 680 mmHg 88%
19:00 +1°C° 0 mm 2 m/s 680 mmHg 88%
20:00 +1°C° 0 mm 2 m/s 680 mmHg 87%
21:00 0°C° 0 mm 3 m/s 681 mmHg 87%
22:00 0°C° 0 mm 3 m/s 681 mmHg 88%
23:00 0°C° 0 mm 4 m/s 681 mmHg 89%

23 Ianuarie, Sâmbătă

Timp Temperatura Precipitaţii Vânt Presiune Umiditate
00:00 0°C° 0 mm 5 m/s 681 mmHg 90%
01:00 0°C° 0 mm 4 m/s 681 mmHg 90%
02:00 0°C° 0 mm 4 m/s 682 mmHg 89%
03:00 +1°C° 0 mm 4 m/s 682 mmHg 89%
04:00 0°C° 0 mm 4 m/s 681 mmHg 88%
05:00 0°C° 0 mm 4 m/s 681 mmHg 88%
06:00 0°C° 0 mm 4 m/s 681 mmHg 87%
07:00 0°C° 0 mm 4 m/s 681 mmHg 87%
08:00 +1°C° 0 mm 4 m/s 682 mmHg 86%
09:00 +1°C° 0 mm 4 m/s 682 mmHg 86%
10:00 +2°C° 0.1 mm 5 m/s 681 mmHg 85%
11:00 +2°C° 0.1 mm 6 m/s 681 mmHg 83%
12:00 +3°C° 0.1 mm 7 m/s 681 mmHg 82%
13:00 +3°C° 0.1 mm 7 m/s 680 mmHg 82%
14:00 +4°C° 0.1 mm 7 m/s 679 mmHg 82%
15:00 +4°C° 0.1 mm 7 m/s 679 mmHg 82%
16:00 +4°C° 0.2 mm 7 m/s 679 mmHg 84%
17:00 +4°C° 0.2 mm 7 m/s 678 mmHg 85%
18:00 +5°C° 0.2 mm 6 m/s 678 mmHg 87%
19:00 +5°C° 0.2 mm 7 m/s 679 mmHg 87%
20:00 +5°C° 0.2 mm 7 m/s 679 mmHg 88%
21:00 +5°C° 0.2 mm 7 m/s 679 mmHg 89%
22:00 +5°C° 0 mm 7 m/s 679 mmHg 87%
23:00 +4°C° 0 mm 6 m/s 680 mmHg 86%

24 Ianuarie, Duminică

Timp Temperatura Precipitaţii Vânt Presiune Umiditate
00:00 +3°C° 0 mm 6 m/s 680 mmHg 84%
01:00 +3°C° 0 mm 5 m/s 680 mmHg 85%
02:00 +3°C° 0 mm 4 m/s 681 mmHg 86%
03:00 +3°C° 0 mm 3 m/s 681 mmHg 88%
04:00 +3°C° 0 mm 3 m/s 681 mmHg 88%
05:00 +3°C° 0 mm 2 m/s 681 mmHg 89%
06:00 +3°C° 0 mm 2 m/s 682 mmHg 90%
07:00 +4°C° 0.1 mm 2 m/s 682 mmHg 89%
08:00 +4°C° 0.1 mm 2 m/s 682 mmHg 88%
09:00 +5°C° 0.1 mm 2 m/s 683 mmHg 88%
10:00 +5°C° 0.2 mm 2 m/s 683 mmHg 87%
11:00 +6°C° 0.2 mm 2 m/s 683 mmHg 87%
12:00 +7°C° 0.2 mm 2 m/s 683 mmHg 86%
13:00 +7°C° 0 mm 2 m/s 682 mmHg 86%
14:00 +7°C° 0 mm 2 m/s 682 mmHg 86%
15:00 +8°C° 0 mm 3 m/s 681 mmHg 85%
16:00 +7°C° 0 mm 3 m/s 681 mmHg 87%
17:00 +7°C° 0 mm 3 m/s 681 mmHg 89%
18:00 +5°C° 0 mm 3 m/s 681 mmHg 90%
19:00 +5°C° 0.2 mm 3 m/s 681 mmHg 91%
20:00 +7°C° 0.2 mm 3 m/s 681 mmHg 92%
21:00 +7°C° 0.2 mm 2 m/s 680 mmHg 92%
22:00 +7°C° 1 mm 3 m/s 680 mmHg 93%
23:00 +7°C° 1 mm 3 m/s 680 mmHg 94%
Arată mai mult

Formular de consimțământ

Meteoprog și furnizorii noștri de servicii pot stoca și accesa date personale, precum cookies, identificatori de dispozitiv sau alte tehnologii similare pe dispozitivul dumneavoastră și procesa astfel de date pentru a personaliza conținutul și reclamele, dar și pentru a oferi caracteristici de social media și pentru a analiza traficul.

  • Stocarea și/sau accesarea informațiilor pe dispozitivul dumneavoastră

    Cookies, identificatori de dispozitiv sau alte informații pot fi stocate sau accesate pe dispozitiv în scopurile indicate mai sus.

  • Reclame și conținut personalizat, evaluarea reclamelor și a conținutului, informații despre audiențe și dezvoltarea produselor

    Reclamele și conținutul pot fi personalizate pe baza unui profil. Pot fi adăugate date suplimentare pentru a personaliza mai bine reclamele și conținutul. Performanța reclamelor și conținutului poate fi măsurată. Pot fi obținute informații despre utilizatorii care au văzut reclamele și conținutul. Aceste date pot fi utilizate pentru a dezvolta sau îmbunătăți experiența utilizatorilor, sistemele și software-ul.

Dând clic pe ‘Sunt de acord’, permiteți utilizarea cookie-urilor menționate, a identificatorilor de dispozitiv, balizelor web sau altor tehnologii similare. Setările pot fi modificate din browser-ul dispozitivului dumneavoastră.

În anumite scopuri, interesele legitime pot prima asupra consimțământului. Puteți citi mai multe informații în acest sens în Politica privind Confidențialitatea Datelor și Cookie.